KC3BHK-2 Weather Reports


Display with metric or nautical units.
time (UTC)temp
F
wind
direction
speed
MPH
gust
MPH
rain 1hr
in
rain 24hr
in
rain mn
in
humidity
%
barometer
mb
20260906041928 62 45 0.0 0.0 0.00 0.00 0.00
20260906041423 62 45 0.0 0.0 0.00 0.00 0.00
20260906040918 62 45 0.0 0.0 0.00 0.00 0.00
20260906040413 61 45 0.0 0.0 0.00 0.00 0.00
20260906035908 63 45 0.0 0.0 0.00 0.00 0.00
20260906035400 63 45 0.0 0.0 0.00 0.00 0.00
20260906034855 63 45 0.0 0.0 0.00 0.00 0.00
20260906034350 62 45 0.0 0.0 0.00 0.00 0.00
20260906033845 63 45 0.0 0.0 0.00 0.00 0.00
20260906033340 63 45 0.0 0.0 0.00 0.00 0.00
20260906032836 62 45 0.0 0.0 0.00 0.00 0.00
20260906031823 64 45 0.0 0.0 0.00 0.00 0.00
20260906031318 65 45 0.0 0.0 0.00 0.00 0.00
20260906030308 64 45 0.0 0.0 0.00 0.00 0.00
20260906024750 65 45 0.0 0.0 0.00 0.00 0.00
20260906024245 64 45 0.0 0.0 0.00 0.00 0.00
20260906023235 65 45 0.0 0.0 0.00 0.00 0.00
20260906022730 66 45 0.0 0.0 0.00 0.00 0.00
20260906022221 66 45 0.0 0.0 0.00 0.00 0.00
20260906021716 67 45 0.0 0.0 0.00 0.00 0.00
20260906021212 66 45 0.0 0.0 0.00 0.00 0.00
20260906020707 66 45 0.0 0.0 0.00 0.00 0.00
20260906020202 65 45 0.0 0.0 0.00 0.00 0.00
20260906015657 67 45 0.0 0.0 0.00 0.00 0.00
20260906015149 66 45 0.0 0.0 0.00 0.00 0.00
20260906014644 68 45 0.0 0.0 0.00 0.00 0.00
20260906014139 67 45 0.0 0.0 0.00 0.00 0.00
20260906013634 67 45 0.0 0.0 0.00 0.00 0.00
20260906013129 67 45 0.0 0.0 0.00 0.00 0.00
20260906012624 67 45 0.0 0.0 0.00 0.00 0.00
20260906012117 68 45 0.0 0.0 0.00 0.00 0.00
20260906011612 68 45 0.0 0.0 0.00 0.00 0.00
20260906011107 69 45 0.0 0.0 0.00 0.00 0.00
20260906010602 67 45 0.0 0.0 0.00 0.00 0.00
20260906010057 69 45 0.0 0.0 0.00 0.00 0.00
20260906005044 70 45 0.0 0.0 0.00 0.00 0.00
20260906004540 70 45 0.0 0.0 0.00 0.00 0.00
20260906004035 71 45 0.0 0.0 0.00 0.00 0.00
20260906003530 71 45 0.0 0.0 0.00 0.00 0.00
20260906003025 71 45 0.0 0.0 0.00 0.00 0.00
20260906002520 71 45 0.0 0.0 0.00 0.00 0.00
20260906002012 71 45 0.0 0.0 0.00 0.00 0.00
20260906001507 71 45 0.0 0.0 0.00 0.00 0.00
20260906001003 73 45 0.0 0.0 0.00 0.00 0.00
20260906000458 72 45 0.0 1.0 0.00 0.00 0.00
20260905235953 73 45 0.0 0.0 0.00 0.00 0.00
20260905235448 73 41 0.0 1.0 0.00 0.00 0.00
20260905234940 72 41 0.0 2.0 0.00 0.00 0.00
20260905234435 73 62 0.0 4.0 0.00 0.00 0.00
20260905233931 73 60 0.0 4.0 0.00 0.00 0.00
20260905233426 73 25 0.0 2.0 0.00 0.00 0.00
20260905232921 72 39 0.0 2.0 0.00 0.00 0.00
20260905232416 72 73 0.0 5.0 0.00 0.00 0.00
20260905231909 72 32 1.0 0.0 0.00 0.00 0.00
20260905231404 73 49 0.0 0.0 0.00 0.00 0.00
20260905230859 74 49 0.0 0.0 0.00 0.00 0.00
20260905230354 74 49 0.0 0.0 0.00 0.00 0.00
20260905225849 75 49 0.0 0.0 0.00 0.00 0.00
20260905225344 76 49 0.0 1.0 0.00 0.00 0.00
20260905224837 77 49 0.0 0.0 0.00 0.00 0.00
20260905224332 78 65 0.0 1.0 0.00 0.00 0.00
20260905223827 79 65 0.0 2.0 0.00 0.00 0.00
20260905223322 80 27 0.0 3.0 0.00 0.00 0.00
20260905222312 79 42 0.0 2.0 0.00 0.00 0.00
20260905221805 79 42 0.0 4.0 0.00 0.00 0.00
20260905221300 80 346 0.0 3.0 0.00 0.00 0.00
20260905220755 82 346 0.0 2.0 0.00 0.00 0.00
20260905220250 83 11 0.0 3.0 0.00 0.00 0.00
20260905215745 83 359 0.0 3.0 0.00 0.00 0.00
20260905215240 85 359 0.0 5.0 0.00 0.00 0.00
20260905214228 82 20 1.0 1.0 0.00 0.00 0.00
20260905213721 82 25 0.0 4.0 0.00 0.00 0.00
20260905213215 84 98 1.0 4.0 0.00 0.00 0.00
20260905212710 83 32 0.0 3.0 0.00 0.00 0.00
20260905211658 88 46 1.0 5.0 0.00 0.00 0.00
20260905211153 89 0 1.0 3.0 0.00 0.00 0.00
20260905210648 88 14 3.0 4.0 0.00 0.00 0.00
20260905210143 89 17 0.0 5.0 0.00 0.00 0.00
20260905205637 89 298 0.0 2.0 0.00 0.00 0.00
20260905205132 88 53 0.0 3.0 0.00 0.00 0.00
20260905204625 89 14 0.0 4.0 0.00 0.00 0.00
20260905203615 88 15 1.0 3.0 0.00 0.00 0.00
20260905203109 88 284 0.0 4.0 0.00 0.00 0.00
20260905202604 89 266 0.0 4.0 0.00 0.00 0.00
20260905202100 89 25 0.0 2.0 0.00 0.00 0.00
20260905201550 88 197 1.0 3.0 0.00 0.00 0.00
20260905201045 88 215 0.0 1.0 0.00 0.00 0.00
20260905200540 86 48 0.0 3.0 0.00 0.00 0.00
20260905195530 84 60 0.0 2.0 0.00 0.00 0.00
20260905195025 84 28 1.0 0.0 0.00 0.00 0.00
20260905194013 88 322 2.0 5.0 0.00 0.00 0.00
20260905193508 88 76 0.0 3.0 0.00 0.00 0.00
20260905193002 89 325 0.0 6.0 0.00 0.00 0.00
20260905192457 87 6 0.0 4.0 0.00 0.00 0.00
20260905191952 89 10 0.0 7.0 0.00 0.00 0.00
20260905191507 89 20 1.0 4.0 0.00 0.00 0.00
20260905191443 89 359 0.0 4.0 0.00 0.00 0.00
20260905190938 89 20 1.0 4.0 0.00 0.00 0.00
20260905190433 85 28 1.0 4.0 0.00 0.00 0.00
20260905185928 87 312 2.0 3.0 0.00 0.00 0.00
20260905185424 88 253 3.0 4.0 0.00 0.00 0.00
20260905184919 87 51 0.0 4.0 0.00 0.00 0.00
20260905184411 88 0 4.0 5.0 0.00 0.00 0.00
20260905182856 82 37 0.0 4.0 0.00 0.00 0.00
20260905182352 84 21 0.0 1.0 0.00 0.00 0.00
20260905181847 82 20 0.0 3.0 0.00 0.00 0.00
20260905181339 84 75 1.0 5.0 0.00 0.00 0.00
20260905180834 86 3 3.0 3.0 0.00 0.00 0.00
20260905175825 83 3 1.0 3.0 0.00 0.00 0.00
20260905175320 84 122 3.0 4.0 0.00 0.00 0.00
20260905174815 85 32 0.0 2.0 0.00 0.00 0.00
20260905174307 84 41 0.0 2.0 0.00 0.00 0.00
20260905173802 84 41 0.0 2.0 0.00 0.00 0.00
20260905172753 83 62 0.0 3.0 0.00 0.00 0.00
20260905172248 81 13 0.0 4.0 0.00 0.00 0.00
20260905171743 82 10 0.0 3.0 0.00 0.00 0.00
20260905171236 80 25 0.0 3.0 0.00 0.00 0.00
20260905170731 80 59 2.0 3.0 0.00 0.00 0.00
20260905165217 82 41 1.0 4.0 0.00 0.00 0.00
20260905164712 81 48 0.0 6.0 0.00 0.00 0.00
20260905164204 80 66 3.0 5.0 0.00 0.00 0.00
20260905163700 81 66 0.0 4.0 0.00 0.00 0.00
20260905163155 82 38 0.0 5.0 0.00 0.00 0.00
20260905162650 80 38 0.0 3.0 0.00 0.00 0.00
20260905162145 81 17 0.0 5.0 0.00 0.00 0.00
20260905161640 82 11 1.0 3.0 0.00 0.00 0.00
20260905161133 81 30 1.0 3.0 0.00 0.00 0.00
20260905160628 82 30 0.0 4.0 0.00 0.00 0.00
20260905160122 80 18 1.0 2.0 0.00 0.00 0.00
20260905155617 80 42 0.0 0.0 0.00 0.00 0.00
20260905155113 81 42 0.0 3.0 0.00 0.00 0.00
20260905154608 80 18 0.0 4.0 0.00 0.00 0.00
20260905154100 80 76 1.0 2.0 0.00 0.00 0.00
20260905153556 78 63 0.0 2.0 0.00 0.00 0.00
20260905153051 79 13 1.0 4.0 0.00 0.00 0.00
20260905152041 77 73 0.0 3.0 0.00 0.00 0.00
20260905151537 76 350 1.0 4.0 0.00 0.00 0.00
20260905151029 78 77 0.0 4.0 0.00 0.00 0.00
20260905150525 79 30 1.0 3.0 0.00 0.00 0.00
20260905150020 79 41 0.0 3.0 0.00 0.00 0.00
20260905145514 79 44 0.0 5.0 0.00 0.00 0.00
20260905145009 79 8 0.0 1.0 0.00 0.00 0.00
20260905144505 79 37 1.0 5.0 0.00 0.00 0.00
20260905143452 78 18 0.0 3.0 0.00 0.00 0.00
20260905142946 78 8 2.0 6.0 0.00 0.00 0.00
20260905142441 80 23 1.0 4.0 0.00 0.00 0.00
20260905141432 80 60 0.0 3.0 0.00 0.00 0.00
20260905140924 79 21 0.0 4.0 0.00 0.00 0.00
20260905140420 79 20 0.0 1.0 0.00 0.00 0.00
20260905135407 77 66 1.0 6.0 0.00 0.00 0.00
20260905134902 77 316 1.0 4.0 0.00 0.00 0.00
20260905134358 78 111 1.0 4.0 0.00 0.00 0.00
20260905133850 77 20 2.0 7.0 0.00 0.00 0.00
20260905133345 77 79 0.0 7.0 0.00 0.00 0.00
20260905132840 78 31 2.0 4.0 0.00 0.00 0.00
20260905132336 75 53 0.0 1.0 0.00 0.00 0.00
20260905131831 75 18 0.0 3.0 0.00 0.00 0.00
20260905131326 74 342 3.0 6.0 0.00 0.00 0.00
20260905130818 75 28 0.0 2.0 0.00 0.00 0.00
20260905130313 73 3 0.0 3.0 0.00 0.00 0.00
20260905125808 74 56 0.0 2.0 0.00 0.00 0.00
20260905125306 73 339 2.0 4.0 0.00 0.00 0.00
20260905124759 73 24 0.0 5.0 0.00 0.00 0.00
20260905124254 72 41 0.0 4.0 0.00 0.00 0.00
20260905123746 73 38 1.0 4.0 0.00 0.00 0.00
20260905123241 72 20 0.0 2.0 0.00 0.00 0.00
20260905122232 72 352 0.0 1.0 0.00 0.00 0.00
20260905121727 72 38 0.0 2.0 0.00 0.00 0.00
20260905121222 71 30 0.0 0.0 0.00 0.00 0.00
20260905120714 71 30 0.0 2.0 0.00 0.00 0.00
20260905115200 72 27 0.0 3.0 0.00 0.00 0.00
20260905114655 70 77 3.0 0.0 0.00 0.00 0.00
20260905114150 69 136 0.0 0.0 0.00 0.00 0.00
20260905113642 70 136 0.0 0.0 0.00 0.00 0.00
20260905113137 71 136 0.0 0.0 0.00 0.00 0.00
20260905112632 71 136 0.0 0.0 0.00 0.00 0.00
20260905112128 70 136 0.0 0.0 0.00 0.00 0.00
20260905111623 70 136 0.0 0.0 0.00 0.00 0.00
20260905111118 69 136 0.0 0.0 0.00 0.00 0.00
20260905110609 69 136 0.0 0.0 0.00 0.00 0.00
20260905105053 69 136 0.0 0.0 0.00 0.00 0.00
20260905104548 68 136 0.0 0.0 0.00 0.00 0.00
20260905104042 67 136 0.0 0.0 0.00 0.00 0.00
20260905103535 68 136 0.0 0.0 0.00 0.00 0.00
20260905103030 68 136 0.0 0.0 0.00 0.00 0.00
20260905102524 68 136 0.0 0.0 0.00 0.00 0.00
20260905102019 68 136 0.0 0.0 0.00 0.00 0.00
20260905101514 68 136 0.0 0.0 0.00 0.00 0.00
20260905101009 67 136 0.0 0.0 0.00 0.00 0.00
20260905100501 68 136 0.0 0.0 0.00 0.00 0.00
20260905095957 68 136 0.0 0.0 0.00 0.00 0.00
20260905095451 67 136 0.0 0.0 0.00 0.00 0.00
20260905094946 67 136 0.0 0.0 0.00 0.00 0.00
20260905094442 68 136 0.0 0.0 0.00 0.00 0.00
20260905093937 68 136 0.0 0.0 0.00 0.00 0.00
20260905093428 67 136 0.0 0.0 0.00 0.00 0.00
20260905092923 67 136 0.0 0.0 0.00 0.00 0.00
20260905092418 68 136 0.0 0.0 0.00 0.00 0.00
20260905091913 68 136 0.0 0.0 0.00 0.00 0.00
20260905091408 69 136 0.0 0.0 0.00 0.00 0.00
20260905090903 67 136 0.0 0.0 0.00 0.00 0.00
20260905090356 67 136 0.0 0.0 0.00 0.00 0.00
20260905085346 67 136 0.0 0.0 0.00 0.00 0.00
20260905084336 67 136 0.0 0.0 0.00 0.00 0.00
20260905083831 68 136 0.0 0.0 0.00 0.00 0.00
20260905083323 68 136 0.0 0.0 0.00 0.00 0.00
20260905082818 68 136 0.0 0.0 0.00 0.00 0.00
20260905082314 66 136 0.0 0.0 0.00 0.00 0.00
20260905081304 68 136 0.0 0.0 0.00 0.00 0.00
20260905080759 68 136 0.0 0.0 0.00 0.00 0.00
20260905080251 68 136 0.0 0.0 0.00 0.00 0.00
20260905075746 68 136 0.0 0.0 0.00 0.00 0.00
20260905075242 67 136 0.0 0.0 0.00 0.00 0.00
20260905074737 67 136 0.0 0.0 0.00 0.00 0.00
20260905074232 69 136 0.0 0.0 0.00 0.00 0.00
20260905073727 68 136 0.0 0.0 0.00 0.00 0.00
20260905073219 69 136 0.0 0.0 0.00 0.00 0.00
20260905072714 68 136 0.0 0.0 0.00 0.00 0.00
20260905072209 68 136 0.0 0.0 0.00 0.00 0.00
20260905071704 68 136 0.0 0.0 0.00 0.00 0.00
20260905071200 68 136 0.0 0.0 0.00 0.00 0.00
20260905070655 69 136 0.0 1.0 0.00 0.00 0.00
20260905070147 68 136 0.0 1.0 0.00 0.00 0.00
20260905065642 68 49 0.0 0.0 0.00 0.00 0.00
20260905065137 68 49 0.0 0.0 0.00 0.00 0.00
20260905064633 69 49 0.0 0.0 0.00 0.00 0.00
20260905064128 69 49 0.0 0.0 0.00 0.00 0.00
20260905063623 69 49 0.0 0.0 0.00 0.00 0.00
20260905063115 69 49 0.0 0.0 0.00 0.00 0.00
20260905062610 70 49 0.0 0.0 0.00 0.00 0.00
20260905062106 69 49 0.0 0.0 0.00 0.00 0.00
20260905061056 70 49 0.0 0.0 0.00 0.00 0.00
20260905060551 70 49 0.0 1.0 0.00 0.00 0.00
20260905060043 70 207 0.0 1.0 0.00 0.00 0.00
20260905055538 71 207 0.0 1.0 0.00 0.00 0.00
20260905055033 72 181 0.0 3.0 0.00 0.00 0.00
20260905054528 71 204 1.0 4.0 0.00 0.00 0.00
20260905054023 71 250 3.0 3.0 0.00 0.00 0.00
20260905053518 71 207 0.0 3.0 0.00 0.00 0.00
20260905052506 70 100 0.0 0.0 0.00 0.00 0.00
20260905052001 69 100 0.0 0.0 0.00 0.00 0.00
20260905051456 70 100 0.0 0.0 0.00 0.00 0.00
20260905045936 71 100 0.0 0.0 0.00 0.00 0.00
20260905045431 71 100 0.0 0.0 0.00 0.00 0.00
20260905044926 71 100 0.0 0.0 0.00 0.00 0.00
20260905044421 72 100 0.0 4.0 0.00 0.00 0.00
20260905043916 71 169 1.0 2.0 0.00 0.00 0.00
20260905043411 73 65 0.0 2.0 0.00 0.00 0.00
20260905042903 73 105 1.0 3.0 0.00 0.00 0.00
20260905042359 73 118 3.0 3.0 0.00 0.00 0.00